Location: Bois de la Silve
(44.4667°N, 6.7833°E)
Time: 20:53:41
(UTC+00:00)

USA 238 DEB - Visible Passes

Search period start: 18 June 2021 00:00
Search period end: 28 June 2021 00:00
Orbit: 991 x 1221 km, 63.4° (Epoch: 18 June)

Date Brightness Start Highest point End Pass type
(mag) Time Alt. Az. Time Alt. Az. Time Alt. Az.
18 Jun 6.5 00:51:00 10° NNW 00:55:56 19° NNE 01:01:00 10° ENE visible
18 Jun 5.1 02:41:51 10° NNW 02:48:47 47° NE 02:56:00 10° ESE visible
18 Jun 4.7 20:17:19 10° WSW 20:23:41 50° NW 20:30:25 10° NNE visible
18 Jun 6.4 22:11:38 10° WNW 22:16:24 20° NNW 22:21:21 10° NNE visible
19 Jun 6.6 00:05:54 10° NNW 00:10:19 17° N 00:14:51 10° NE visible
19 Jun 5.6 01:57:08 10° NNW 02:03:36 35° NE 02:10:21 10° E visible
19 Jun 6.1 21:25:37 10° WNW 21:30:55 24° NNW 21:36:26 10° NNE visible
19 Jun 6.7 23:20:32 10° NW 23:24:39 16° N 23:28:54 10° NE visible
20 Jun 6.0 01:12:23 10° NNW 01:18:18 27° NNE 01:24:25 10° E visible
20 Jun 4.1 03:03:03 10° NW 03:10:22 80° NE 03:17:59 10° SE visible
20 Jun 5.8 20:39:46 10° W 20:45:34 31° NNW 20:51:38 10° NNE visible
20 Jun 6.6 22:34:49 10° NW 22:38:59 16° N 22:43:16 10° NNE visible
21 Jun 6.3 00:27:34 10° NNW 00:32:51 22° NNE 00:38:19 10° ENE visible
21 Jun 4.7 02:18:17 10° NNW 02:25:25 57° NE 02:32:50 10° SE visible
21 Jun 5.2 19:54:09 10° WSW 20:00:21 41° NW 20:06:52 10° NNE visible
21 Jun 6.5 21:48:52 10° NW 21:53:21 18° NNW 21:57:59 10° NNE visible
21 Jun 6.5 23:42:36 10° NNW 23:47:18 18° NNE 23:52:09 10° ENE visible
22 Jun 5.2 01:33:34 10° NNW 01:40:20 41° NE 01:47:22 10° ESE visible
22 Jun 6.4 21:02:49 10° WNW 21:07:48 21° NNW 21:12:58 10° NNE visible
22 Jun 6.6 22:57:24 10° NNW 23:01:40 16° N 23:06:03 10° NE visible
23 Jun 5.7 00:48:50 10° NNW 00:55:07 31° NNE 01:01:37 10° E visible
23 Jun 3.9 02:39:33 10° NW 02:46:53 84° SW 02:54:29 10° SSE visible
23 Jun 6.1 20:16:52 10° W 20:22:22 26° NNW 20:28:07 10° NNE visible
23 Jun 6.5 22:11:53 10° NW 22:16:00 16° N 22:20:13 10° NE visible
24 Jun 6.0 00:04:04 10° NNW 00:09:45 24° NNE 00:15:37 10° E visible
24 Jun 4.2 01:54:45 10° NW 02:02:01 69° NE 02:09:34 10° SE visible
24 Jun 6.5 21:26:04 10° NW 21:30:20 17° N 21:34:44 10° NNE visible
24 Jun 6.3 23:19:12 10° NNW 23:24:15 20° NNE 23:29:28 10° ENE visible
25 Jun 4.8 01:10:01 10° NNW 01:17:00 50° NE 01:24:18 10° ESE visible
25 Jun 4.2 03:01:07 10° NW 03:08:00 45° WSW 03:15:08 10° S visible
25 Jun 6.4 20:40:03 10° WNW 20:44:44 19° NNW 20:49:34 10° NNE visible
25 Jun 6.4 22:34:10 10° NNW 22:38:40 17° NNE 22:43:17 10° NE visible
26 Jun 5.3 00:25:17 10° NNW 00:31:52 37° NE 00:38:42 10° ESE visible
26 Jun 3.9 02:16:06 10° NW 02:23:20 68° WSW 02:30:52 10° SSE visible
26 Jun 6.3 19:54:02 10° WNW 19:59:13 23° NNW 20:04:37 10° NNE visible
26 Jun 6.4 21:48:50 10° NNW 21:53:00 16° N 21:57:17 10° NE visible
26 Jun 5.7 23:40:33 10° NNW 23:46:35 28° NNE 23:52:51 10° E visible
27 Jun 3.9 01:31:14 10° NW 01:38:33 85° NE 01:46:11 10° SE visible
27 Jun 6.4 21:03:12 10° NW 21:07:20 16° N 21:11:35 10° NNE visible
27 Jun 6.0 22:55:45 10° NNW 23:01:10 22° NNE 23:06:46 10° ENE visible
